Location: M�nchen
(48.1404°N, 11.6043°E)
Time: 22:23:40
(UTC+02:00)

Tiangong 2 - Visible Passes

Search period start: 20 July 2018 00:00
Search period end: 30 July 2018 00:00
Orbit: 386 x 394 km, 42.8° (Epoch: 20 July)

Date Brightness Start Highest point End Pass type
(mag) Time Alt. Az. Time Alt. Az. Time Alt. Az.
20 Jul 3.4 23:05:41 10° SW 23:06:46 12° SW 23:06:46 12° SW visible
21 Jul 3.0 22:07:28 10° WSW 22:09:41 17° SSW 22:11:28 12° SSE visible
23 Jul 3.6 21:49:33 10° SW 21:50:50 12° SSW 21:52:07 10° S visible
